Aéroclub Cannes UACA

Aéroclub Cannes UACA
UACA
Approuvé A.T.O. EASA – N°FR.ATO.0108

UACA, UNION des aéroclubs
Cannes “Ailes d’Azur”, Nice “Côte d’Azur”, Grasse “St Exupery”, ACCA “Francis Séverac”

Un cache-pitot se trouve à bord de chaque avion. Pensez à le mettre en place à la fin de chaque vol !

Avant de quitter l'avion, vérifiez que vous n'emportez pas la checklist

Un vol ne s'entreprend qu'avec un pare-brise parfaitement propre, il en va de votre sécurité, et de celle des autres

Après chaque vol, merci de mettre en place les pares-soleil!


Météo à Cannes:
METAR
LFMD 290130Z AUTO VRB02KT 9999 FEW021 21/17 Q1003 =
LFMD 281400Z 2815/2915 VRB04KT CAVOK PROB40 TEMPO 2815/2817 16010KT PROB40 TEMPO 2822/2903 09010KT PROB30 TEMPO 2903/2907 BKN014 BECMG 2907/2910 16010KT PROB30 TEMPO 2912/2915 SHRA FEW030TCU

TAF
LFMD 281400Z 2815/2915 VRB04KT CAVOK PROB40 TEMPO 2815/2817 16010KT PROB40 TEMPO 2822/2903 09010KT PROB30 TEMPO 2903/2907 BKN014 BECMG 2907/2910 16010KT PROB30 TEMPO 2912/2915 SHRA FEW030TCU =

SR / SS: 03:50 / 19:08 UTC (LFMD 2022-05-29)